| time (UTC) | temp F | wind direction | speed knots | gust knots | rain 1hr in | rain 24hr in | rain mn in | humidity % | barometer mb |
| 20260904050108 | 70 | 205 | 2.6 | 6.1 | 0.00 | 0.00 | 0.00 | 30 | 1019.8 |
| 20260904044608 | 70 | 192 | 3.5 | 7.8 | 0.00 | 0.00 | 0.00 | 31 | 1019.9 |
| 20260904043103 | 70 | 220 | 2.6 | 7.8 | 0.00 | 0.00 | 0.00 | 31 | 1020.0 |
| 20260904041604 | 70 | 214 | 2.6 | 7.0 | 0.00 | 0.00 | 0.00 | 31 | 1020.2 |
| 20260904040110 | 70 | 0 | 1.7 | 6.1 | 0.00 | 0.00 | 0.00 | 31 | 1020.2 |
| 20260904034608 | 70 | 192 | 2.6 | 6.1 | 0.00 | 0.00 | 0.00 | 31 | 1020.3 |
| 20260904033102 | 70 | 216 | 1.7 | 5.2 | 0.00 | 0.00 | 0.00 | 31 | 1020.4 |
| 20260904031612 | 70 | 0 | 0.0 | 3.5 | 0.00 | 0.00 | 0.00 | 32 | 1020.5 |
| 20260904030110 | 70 | 0 | 0.0 | 3.5 | 0.00 | 0.00 | 0.00 | 31 | 1020.6 |
| 20260904024606 | 70 | 219 | 0.0 | 2.6 | 0.00 | 0.00 | 0.00 | 31 | 1020.6 |
| 20260904023104 | 71 | 231 | 0.0 | 0.9 | 0.00 | 0.00 | 0.00 | 30 | 1020.3 |
| 20260904021609 | 72 | 0 | 0.0 | 0.0 | 0.00 | 0.00 | 0.00 | 30 | 1020.1 |
| 20260904020120 | 72 | 0 | 0.0 | 2.6 | 0.00 | 0.00 | 0.00 | 28 | 1020.1 |
| 20260904014626 | 73 | 219 | 0.0 | 0.9 | 0.00 | 0.00 | 0.00 | 26 | 1020.0 |
| 20260904013109 | 75 | 0 | 0.0 | 3.5 | 0.00 | 0.00 | 0.00 | 24 | 1019.9 |
| 20260904011603 | 75 | 0 | 0.0 | 0.0 | 0.00 | 0.00 | 0.00 | 24 | 1019.8 |
| 20260904010106 | 76 | 0 | 0.0 | 3.5 | 0.00 | 0.00 | 0.00 | 23 | 1019.7 |
| 20260904004608 | 77 | 344 | 0.9 | 3.5 | 0.00 | 0.00 | 0.00 | 23 | 1019.6 |
| 20260904003106 | 78 | 37 | 1.7 | 4.3 | 0.00 | 0.00 | 0.00 | 22 | 1019.6 |
| 20260904001602 | 79 | 340 | 0.9 | 5.2 | 0.00 | 0.00 | 0.00 | 21 | 1019.4 |
| 20260904000124 | 80 | 76 | 1.7 | 5.2 | 0.00 | 0.00 | 0.00 | 21 | 1019.4 |
| 20260903234608 | 81 | 6 | 0.9 | 5.2 | 0.00 | 0.00 | 0.00 | 20 | 1019.4 |
| 20260903233105 | 80 | 12 | 0.0 | 6.1 | 0.00 | 0.00 | 0.00 | 21 | 1019.4 |
| 20260903231606 | 80 | 11 | 4.3 | 8.7 | 0.00 | 0.00 | 0.00 | 21 | 1019.3 |
| 20260903230114 | 81 | 76 | 2.6 | 7.8 | 0.00 | 0.00 | 0.00 | 21 | 1019.4 |
| 20260903224627 | 80 | 213 | 3.5 | 7.8 | 0.00 | 0.00 | 0.00 | 21 | 1019.3 |
| 20260903223104 | 80 | 347 | 3.5 | 10.4 | 0.00 | 0.00 | 0.00 | 21 | 1019.4 |
| 20260903221605 | 79 | 12 | 1.7 | 8.7 | 0.00 | 0.00 | 0.00 | 22 | 1019.5 |
| 20260903220107 | 79 | 23 | 4.3 | 12.2 | 0.00 | 0.00 | 0.00 | 21 | 1019.6 |
| 20260903214613 | 80 | 97 | 2.6 | 8.7 | 0.00 | 0.00 | 0.00 | 21 | 1019.6 |
| 20260903213117 | 80 | 101 | 5.2 | 10.4 | 0.00 | 0.00 | 0.00 | 21 | 1019.6 |
| 20260903211610 | 80 | 101 | 3.5 | 12.2 | 0.00 | 0.00 | 0.00 | 21 | 1019.8 |
| 20260903210129 | 81 | 352 | 2.6 | 7.8 | 0.00 | 0.00 | 0.00 | 21 | 1019.9 |
| 20260903204606 | 80 | 19 | 4.3 | 9.6 | 0.00 | 0.00 | 0.00 | 22 | 1020.1 |
| 20260903203115 | 80 | 70 | 4.3 | 8.7 | 0.00 | 0.00 | 0.00 | 22 | 1020.1 |
| 20260903201606 | 80 | 93 | 3.5 | 11.3 | 0.00 | 0.00 | 0.00 | 22 | 1020.3 |
| 20260903200104 | 80 | 27 | 3.5 | 7.8 | 0.00 | 0.00 | 0.00 | 23 | 1020.3 |
| 20260903194602 | 78 | 69 | 3.5 | 13.9 | 0.00 | 0.00 | 0.00 | 23 | 1020.4 |
| 20260903193106 | 79 | 64 | 2.6 | 13.9 | 0.00 | 0.00 | 0.00 | 23 | 1020.4 |
| 20260903191603 | 79 | 51 | 1.7 | 11.3 | 0.00 | 0.00 | 0.00 | 23 | 1020.6 |
| 20260903190107 | 78 | 6 | 4.3 | 13.0 | 0.00 | 0.00 | 0.00 | 23 | 1020.6 |
| 20260903184606 | 78 | 43 | 3.5 | 9.6 | 0.00 | 0.00 | 0.00 | 24 | 1020.8 |
| 20260903183106 | 77 | 25 | 4.3 | 10.4 | 0.00 | 0.00 | 0.00 | 25 | 1020.9 |
| 20260903181609 | 76 | 90 | 5.2 | 11.3 | 0.00 | 0.00 | 0.00 | 26 | 1021.2 |
| 20260903180107 | 77 | 84 | 6.1 | 15.6 | 0.00 | 0.00 | 0.00 | 25 | 1021.4 |
| 20260903174607 | 80 | 46 | 4.3 | 7.8 | 0.00 | 0.00 | 0.00 | 23 | 1021.4 |
| 20260903173104 | 80 | 231 | 0.9 | 6.1 | 0.00 | 0.00 | 0.00 | 21 | 1021.4 |
| 20260903171614 | 79 | 239 | 1.7 | 9.6 | 0.00 | 0.00 | 0.00 | 22 | 1021.5 |
| 20260903170107 | 79 | 210 | 0.9 | 8.7 | 0.00 | 0.00 | 0.00 | 22 | 1021.7 |
| 20260903164623 | 77 | 38 | 1.7 | 9.6 | 0.00 | 0.00 | 0.00 | 23 | 1021.6 |
| 20260903163105 | 77 | 20 | 2.6 | 7.8 | 0.00 | 0.00 | 0.00 | 23 | 1021.7 |
| 20260903161602 | 78 | 187 | 1.7 | 9.6 | 0.00 | 0.00 | 0.00 | 23 | 1021.5 |
| 20260903160129 | 76 | 0 | 1.7 | 12.2 | 0.00 | 0.00 | 0.00 | 26 | 1021.6 |
| 20260903154611 | 75 | 117 | 2.6 | 11.3 | 0.00 | 0.00 | 0.00 | 27 | 1021.7 |
| 20260903153108 | 74 | 274 | 4.3 | 9.6 | 0.00 | 0.00 | 0.00 | 27 | 1021.7 |
| 20260903151603 | 74 | 168 | 1.7 | 8.7 | 0.00 | 0.00 | 0.00 | 28 | 1021.7 |
| 20260903150108 | 73 | 238 | 3.5 | 8.7 | 0.00 | 0.00 | 0.00 | 30 | 1021.9 |
| 20260903144607 | 72 | 190 | 4.3 | 10.4 | 0.00 | 0.00 | 0.00 | 31 | 1021.7 |
| 20260903143112 | 71 | 101 | 4.3 | 9.6 | 0.00 | 0.00 | 0.00 | 32 | 1021.6 |
| 20260903141614 | 71 | 163 | 5.2 | 11.3 | 0.00 | 0.00 | 0.00 | 33 | 1021.6 |
| 20260903140109 | 70 | 127 | 3.5 | 10.4 | 0.00 | 0.00 | 0.00 | 34 | 1021.7 |
| 20260903134605 | 69 | 157 | 2.6 | 8.7 | 0.00 | 0.00 | 0.00 | 34 | 1021.6 |
| 20260903133108 | 69 | 120 | 1.7 | 9.6 | 0.00 | 0.00 | 0.00 | 35 | 1021.3 |
| 20260903131607 | 68 | 157 | 2.6 | 8.7 | 0.00 | 0.00 | 0.00 | 36 | 1021.3 |
| 20260903130105 | 66 | 188 | 0.9 | 5.2 | 0.00 | 0.00 | 0.00 | 37 | 1021.2 |
| 20260903124607 | 64 | 181 | 2.6 | 6.1 | 0.00 | 0.00 | 0.00 | 39 | 1021.0 |
| 20260903123107 | 64 | 180 | 2.6 | 8.7 | 0.00 | 0.00 | 0.00 | 40 | 1020.8 |
| 20260903121606 | 63 | 196 | 2.6 | 6.1 | 0.00 | 0.00 | 0.00 | 40 | 1020.7 |
| 20260903120107 | 63 | 203 | 1.7 | 7.0 | 0.00 | 0.00 | 0.00 | 41 | 1020.7 |
| 20260903114607 | 63 | 0 | 1.7 | 4.3 | 0.00 | 0.00 | 0.00 | 42 | 1020.5 |
| 20260903113103 | 62 | 218 | 0.0 | 3.5 | 0.00 | 0.00 | 0.00 | 43 | 1020.5 |
| 20260903111604 | 62 | 0 | 0.0 | 3.5 | 0.00 | 0.00 | 0.00 | 45 | 1020.4 |
| 20260903110106 | 62 | 202 | 1.7 | 7.8 | 0.00 | 0.00 | 0.00 | 44 | 1020.5 |
| 20260903104606 | 61 | 213 | 1.7 | 4.3 | 0.00 | 0.00 | 0.00 | 47 | 1020.6 |
| 20260903103106 | 60 | 243 | 0.0 | 3.5 | 0.00 | 0.00 | 0.00 | 47 | 1020.6 |
| 20260903101611 | 61 | 221 | 2.6 | 5.2 | 0.00 | 0.00 | 0.00 | 46 | 1020.5 |
| 20260903100104 | 61 | 0 | 0.0 | 4.3 | 0.00 | 0.00 | 0.00 | 46 | 1020.6 |
| 20260903094612 | 63 | 198 | 4.3 | 10.4 | 0.00 | 0.00 | 0.00 | 44 | 1020.7 |
| 20260903093114 | 60 | 191 | 1.7 | 4.3 | 0.00 | 0.00 | 0.00 | 46 | 1020.8 |
| 20260903091603 | 62 | 210 | 2.6 | 7.8 | 0.00 | 0.00 | 0.00 | 43 | 1020.9 |
| 20260903084601 | 62 | 200 | 1.7 | 7.8 | 0.00 | 0.00 | 0.00 | 42 | 1020.8 |
| 20260903083107 | 63 | 237 | 0.9 | 4.3 | 0.00 | 0.00 | 0.00 | 40 | 1020.8 |
| 20260903081603 | 62 | 186 | 0.9 | 4.3 | 0.00 | 0.00 | 0.00 | 40 | 1020.7 |
| 20260903080107 | 61 | 0 | 0.0 | 0.9 | 0.00 | 0.00 | 0.00 | 41 | 1020.8 |
| 20260903074608 | 63 | 0 | 0.0 | 1.7 | 0.00 | 0.00 | 0.00 | 41 | 1020.9 |
| 20260903073107 | 63 | 0 | 0.9 | 3.5 | 0.00 | 0.00 | 0.00 | 40 | 1020.8 |
| 20260903071611 | 64 | 253 | 0.0 | 1.7 | 0.00 | 0.00 | 0.00 | 41 | 1020.9 |
| 20260903070112 | 65 | 214 | 0.9 | 3.5 | 0.00 | 0.00 | 0.00 | 41 | 1021.0 |
| 20260903064608 | 64 | 0 | 0.0 | 0.9 | 0.00 | 0.00 | 0.00 | 42 | 1021.2 |
| 20260903063127 | 64 | 0 | 0.0 | 0.9 | 0.00 | 0.00 | 0.00 | 43 | 1021.4 |
| 20260903061608 | 64 | 0 | 0.0 | 0.0 | 0.00 | 0.00 | 0.00 | 43 | 1021.3 |
| 20260903060118 | 64 | 0 | 0.0 | 0.9 | 0.00 | 0.00 | 0.00 | 43 | 1021.1 |
| 20260903054611 | 64 | 0 | 0.0 | 0.0 | 0.00 | 0.00 | 0.00 | 44 | 1021.1 |
| 20260903053105 | 64 | 0 | 0.0 | 0.9 | 0.00 | 0.00 | 0.00 | 45 | 1021.2 |
| 20260903051602 | 64 | 0 | 0.0 | 2.6 | 0.00 | 0.00 | 0.00 | 44 | 1021.3 |